Showing default

IRIS-F2, 62684

Orbit data source: Space-Track

IRIS-F2, 62684 is a payload satellite owned by NCKU (TW) in SSO that was launched on Tue, 14 Jan 2025 UTC via an FALCON 9 launch vehicle from the Air Force Western Test Range (AFWTR). Payload-class satellites include a variety of spacecraft equipped with specific instruments for various scientific and technological missions. These include communications satellites like Starlink; space stations such as the ISS; scientific satellites like the Hubble; Earth observation satellites from companies like Planet Labs, Umbra, and HawkEye 360; GPS; miniature CubeSats for education and research; and military/defense satellites.

Loading next visibility...
Identifier
62684, 2025-009CD
Orbit
SSO
Country
Flag of TWTW / TWN
Related business
Manufacturer
NCKU
Mission
Operational Amateur Technology
Bus & Motor
CUBESAT 3U, Unknown motor
Mass
4 kg wet, 4 kg dry
Launch date (UTC)
2025-01-14 (1 year ago)
Launch vehicle
FALCON 9
Launch site
Air Force Western Test Range (AFWTR)
Object type
Payload
Rocket body
Debris
Shape & HBR
Box, 0.4 m
Radar Cross Section
0.035 m², Medium (>0.1 m² and < 1m²)

Expand to show TLE details & history
Last TLE update: 21 hours ago

TLE from 21 hours ago
0 IRIS-F2
1 62684U 25009CD  26067.78928546  .00009648  00000-0  38955-3 0  9992
2 62684  97.3939 148.7424 0005025   2.5206 357.6056 15.24972170121155
Epoch: 2026-03-08T18:56Z
TLE epoch observation values (Epoch: 2026-03-08T18:56:34.263Z)
Latitude
-0.00007°
Longitude
58.1081°
Altitude
490.517 km
Speed
7.622 km/s
True Right ascension
09h 54m 58s
True Declination
0° 00' 00"
Sunlit
Object was in full shadow at epoch
Visualization orbit readout
Latitude
Unknown
Longitude
Unknown
Altitude
Unknown
Speed
Unknown
Apparent Right ascension
Unknown
Apparent Declination
Unknown
Sunlit
N/A
Visualization observer readout
Local Sidereal Time
20:01:27
Azimuth
Unknown
Elevation
Unknown
Doppler factor
Unknown
Orbital elements
Apogee altitude
491.278 km
Perigee altitude
484.378 km
Semi-major axis
6,865.965 km
Eccentricity
0.0005
Inclination
97.3939°
RAAN
148.7424°
Arg. of periapsis
2.5206°
True anomaly
357.60319°
Mean anomaly
357.6056°
Eccentric anomaly
357.6044°
Mean motion
3.81497 °/min
Orbital period
94.37 mins
BSTAR
0.00038955
Loading maneuver chart data...
Computing Atmospheric mass density...
Loading historical data...
Loading historical data...
Loading historical data...
Loading historical data...
Loading historical data...
Loading historical data...
Loading historical data...

Documentation

Showing up to 5 results
|